Location: Bernadets
(43.3537°N, 0.3167°E)
Time: 00:12:03
(UTC+00:00)

CENTAUR R/B - Pass Details

Date: 24 October 2021
Orbit: 728 x 1459 km, 63.4° (Epoch: 26 November)

Event Time Altitude Azimuth Distance (km) Brightness Sun altitude
Rises 19:50:34 0° 323° (NW) 4,049 6.4 -31.3°
Reaches altitude 10° 19:53:34 10° 333° (NNW) 3,193 5.6 -31.8°
Enters shadow 19:59:44 31° 25° (NNE) 2,154 4.1 -32.9°
